User: anonymous   Login
Location: Clinton NY
(43.0598°N, 75.3602°W)
Time: 16:08:19
(UTC-04:00)
Language:

ISS - Orbit

View from above orbital plane
View from above orbital plane
View from above satellite
View from above satellite

Ground track
Ground track

The orbit data is extracted from the following two-line orbital elements,

1 25544U 98067A   17264.55185257  .00016717  00000-0  10270-3 0  9038
2 25544  51.6389 277.9413 0003926 306.6640  53.4151 15.54227086 36730
Epoch (UTC): 21 September 2017 13:14:40
Eccentricity: 0.0003926
inclination: 51.6389°
perigee height: 402 km
apogee height: 407 km
right ascension of ascending node: 277.9413°
argument of perigee: 306.6640°
revolutions per day: 15.54227086
mean anomaly at epoch: 53.4151°
orbit number at epoch: 3673

The dashed part of the orbit path shows where the satellite is in the earth's shadow,  

DLR